Time,TemperatureF,DewpointF,PressureIn,WindDirection,WindDirectionDegrees,WindSpeedMPH,WindSpeedGustMPH,Humidity,HourlyPrecipIn,Conditions,Clouds,dailyrainin,SoftwareType,DateUTC
2013-05-10 00:02:00,53.7,-99.9,28.84,North,-999,-999.0,-999.0,-999,-99.99,,,-99.99,,2013-05-10 04:02:00,
2013-05-10 00:04:00,53.5,-99.9,28.84,North,-999,-999.0,-999.0,-999,-99.99,,,-99.99,,2013-05-10 04:04:00,
2013-05-10 00:06:00,53.5,-99.9,28.84,North,-999,-999.0,-999.0,-999,-99.99,,,-99.99,,2013-05-10 04:06:00,
2013-05-10 00:12:00,53.2,-99.9,28.84,North,-999,-999.0,-999.0,-999,-99.99,,,-99.99,,2013-05-10 04:12:00,
2013-05-10 00:14:00,53.1,-99.9,28.84,North,-999,-999.0,-999.0,-999,-99.99,,,-99.99,,2013-05-10 04:14:00,
2013-05-10 00:20:00,52.9,-99.9,28.84,North,-999,-999.0,-999.0,-999,-99.99,,,-99.99,,2013-05-10 04:20:00,
2013-05-10 00:26:00,52.8,-99.9,28.84,North,-999,-999.0,-999.0,-999,-99.99,,,-99.99,,2013-05-10 04:26:00,
2013-05-10 00:32:00,52.5,-99.9,28.88,North,-999,-999.0,-999.0,-999,-99.99,,,-99.99,,2013-05-10 04:32:00,
2013-05-10 00:38:00,52.2,-99.9,28.84,North,-999,-999.0,-999.0,-999,-99.99,,,-99.99,,2013-05-10 04:38:00,
2013-05-10 00:44:00,52.1,-99.9,28.84,North,-999,-999.0,-999.0,-999,-99.99,,,-99.99,,2013-05-10 04:44:00,
2013-05-10 00:50:00,51.8,-99.9,28.88,North,-999,-999.0,-999.0,-999,-99.99,,,-99.99,,2013-05-10 04:50:00,
2013-05-10 00:56:00,51.6,-99.9,28.88,North,-999,-999.0,-999.0,-999,-99.99,,,-99.99,,2013-05-10 04:56:00,
2013-05-10 00:59:00,65.9,-99.9,28.78,North,-999,-999.0,-999.0,-999,-99.99,,,-99.99,,2013-05-10 04:59:00,
2013-05-10 01:02:00,51.5,-99.9,28.88,North,-999,-999.0,-999.0,-999,-99.99,,,-99.99,,2013-05-10 05:02:00,
2013-05-10 01:08:00,51.3,-99.9,28.88,North,-999,-999.0,-999.0,-999,-99.99,,,-99.99,,2013-05-10 05:08:00,
2013-05-10 01:14:00,51.0,-99.9,28.84,North,-999,-999.0,-999.0,-999,-99.99,,,-99.99,,2013-05-10 05:14:00,
2013-05-10 01:20:00,50.7,-99.9,28.88,North,-999,-999.0,-999.0,-999,-99.99,,,-99.99,,2013-05-10 05:20:00,
2013-05-10 01:26:00,50.3,-99.9,28.88,North,-999,-999.0,-999.0,-999,-99.99,,,-99.99,,2013-05-10 05:26:00,
2013-05-10 01:32:00,50.2,-99.9,28.88,North,-999,-999.0,-999.0,-999,-99.99,,,-99.99,,2013-05-10 05:32:00,
2013-05-10 01:38:00,50.3,-99.9,28.84,North,-999,-999.0,-999.0,-999,-99.99,,,-99.99,,2013-05-10 05:38:00,
2013-05-10 01:44:00,50.2,-99.9,28.88,North,-999,-999.0,-999.0,-999,-99.99,,,-99.99,,2013-05-10 05:44:00,
2013-05-10 01:50:00,50.0,-99.9,28.88,North,-999,-999.0,-999.0,-999,-99.99,,,-99.99,,2013-05-10 05:50:00,
2013-05-10 01:56:00,50.0,-99.9,28.84,North,-999,-999.0,-999.0,-999,-99.99,,,-99.99,,2013-05-10 05:56:00,
2013-05-10 02:02:00,50.0,-99.9,28.88,North,-999,-999.0,-999.0,-999,-99.99,,,-99.99,,2013-05-10 06:02:00,
2013-05-10 02:08:00,50.0,-99.9,28.84,North,-999,-999.0,-999.0,-999,-99.99,,,-99.99,,2013-05-10 06:08:00,
2013-05-10 02:14:00,50.0,-99.9,28.84,North,-999,-999.0,-999.0,-999,-99.99,,,-99.99,,2013-05-10 06:14:00,
2013-05-10 02:20:00,50.0,-99.9,28.88,North,-999,-999.0,-999.0,-999,-99.99,,,-99.99,,2013-05-10 06:20:00,
2013-05-10 02:26:00,50.0,-99.9,28.84,North,-999,-999.0,-999.0,-999,-99.99,,,-99.99,,2013-05-10 06:26:00,
2013-05-10 02:32:00,50.0,-99.9,28.88,North,-999,-999.0,-999.0,-999,-99.99,,,-99.99,,2013-05-10 06:32:00,
2013-05-10 02:38:00,50.1,-99.9,28.88,North,-999,-999.0,-999.0,-999,-99.99,,,-99.99,,2013-05-10 06:38:00,
2013-05-10 02:44:00,49.9,-99.9,28.88,North,-999,-999.0,-999.0,-999,-99.99,,,-99.99,,2013-05-10 06:44:00,
2013-05-10 02:50:00,50.0,-99.9,28.84,North,-999,-999.0,-999.0,-999,-99.99,,,-99.99,,2013-05-10 06:50:00,
2013-05-10 02:56:00,50.2,-99.9,28.88,North,-999,-999.0,-999.0,-999,-99.99,,,-99.99,,2013-05-10 06:56:00,
2013-05-10 03:02:00,50.3,-99.9,28.88,North,-999,-999.0,-999.0,-999,-99.99,,,-99.99,,2013-05-10 07:02:00,
2013-05-10 03:08:00,50.2,-99.9,28.88,North,-999,-999.0,-999.0,-999,-99.99,,,-99.99,,2013-05-10 07:08:00,
2013-05-10 03:14:00,49.9,-99.9,28.88,North,-999,-999.0,-999.0,-999,-99.99,,,-99.99,,2013-05-10 07:14:00,
2013-05-10 03:20:00,49.8,-99.9,28.84,North,-999,-999.0,-999.0,-999,-99.99,,,-99.99,,2013-05-10 07:20:00,
2013-05-10 03:26:00,49.8,-99.9,28.88,North,-999,-999.0,-999.0,-999,-99.99,,,-99.99,,2013-05-10 07:26:00,
2013-05-10 03:32:00,49.7,-99.9,28.88,North,-999,-999.0,-999.0,-999,-99.99,,,-99.99,,2013-05-10 07:32:00,
2013-05-10 03:38:00,49.3,-99.9,28.88,North,-999,-999.0,-999.0,-999,-99.99,,,-99.99,,2013-05-10 07:38:00,
2013-05-10 03:44:00,49.2,-99.9,28.88,North,-999,-999.0,-999.0,-999,-99.99,,,-99.99,,2013-05-10 07:44:00,
2013-05-10 03:50:00,49.3,-99.9,28.88,North,-999,-999.0,-999.0,-999,-99.99,,,-99.99,,2013-05-10 07:50:00,
2013-05-10 03:56:00,49.0,-99.9,28.88,North,-999,-999.0,-999.0,-999,-99.99,,,-99.99,,2013-05-10 07:56:00,
2013-05-10 04:02:00,48.8,-99.9,28.88,North,-999,-999.0,-999.0,-999,-99.99,,,-99.99,,2013-05-10 08:02:00,
2013-05-10 04:08:00,48.7,-99.9,28.88,North,-999,-999.0,-999.0,-999,-99.99,,,-99.99,,2013-05-10 08:08:00,
2013-05-10 04:14:00,48.6,-99.9,28.88,North,-999,-999.0,-999.0,-999,-99.99,,,-99.99,,2013-05-10 08:14:00,
2013-05-10 04:20:00,48.4,-99.9,28.88,North,-999,-999.0,-999.0,-999,-99.99,,,-99.99,,2013-05-10 08:20:00,
2013-05-10 04:26:00,48.3,-99.9,28.88,North,-999,-999.0,-999.0,-999,-99.99,,,-99.99,,2013-05-10 08:26:00,
2013-05-10 04:32:00,48.2,-99.9,28.88,North,-999,-999.0,-999.0,-999,-99.99,,,-99.99,,2013-05-10 08:32:00,
2013-05-10 04:38:00,48.0,-99.9,28.88,North,-999,-999.0,-999.0,-999,-99.99,,,-99.99,,2013-05-10 08:38:00,
2013-05-10 04:44:00,47.9,-99.9,28.88,North,-999,-999.0,-999.0,-999,-99.99,,,-99.99,,2013-05-10 08:44:00,
2013-05-10 04:50:00,47.8,-99.9,28.88,North,-999,-999.0,-999.0,-999,-99.99,,,-99.99,,2013-05-10 08:50:00,
2013-05-10 04:56:00,47.6,-99.9,28.88,North,-999,-999.0,-999.0,-999,-99.99,,,-99.99,,2013-05-10 08:56:00,
2013-05-10 05:02:00,47.6,-99.9,28.88,North,-999,-999.0,-999.0,-999,-99.99,,,-99.99,,2013-05-10 09:02:00,
2013-05-10 05:08:00,47.4,-99.9,28.88,North,-999,-999.0,-999.0,-999,-99.99,,,-99.99,,2013-05-10 09:08:00,
2013-05-10 05:14:00,47.3,-99.9,28.88,North,-999,-999.0,-999.0,-999,-99.99,,,-99.99,,2013-05-10 09:14:00,
2013-05-10 05:20:00,47.3,-99.9,28.88,North,-999,-999.0,-999.0,-999,-99.99,,,-99.99,,2013-05-10 09:20:00,
2013-05-10 05:26:00,47.1,-99.9,28.88,North,-999,-999.0,-999.0,-999,-99.99,,,-99.99,,2013-05-10 09:26:00,
2013-05-10 05:32:00,47.0,-99.9,28.91,North,-999,-999.0,-999.0,-999,-99.99,,,-99.99,,2013-05-10 09:32:00,
2013-05-10 05:38:00,47.0,-99.9,28.88,North,-999,-999.0,-999.0,-999,-99.99,,,-99.99,,2013-05-10 09:38:00,
2013-05-10 05:44:00,46.9,-99.9,28.88,North,-999,-999.0,-999.0,-999,-99.99,,,-99.99,,2013-05-10 09:44:00,
2013-05-10 05:50:00,47.0,-99.9,28.88,North,-999,-999.0,-999.0,-999,-99.99,,,-99.99,,2013-05-10 09:50:00,
2013-05-10 05:56:00,47.0,-99.9,28.88,North,-999,-999.0,-999.0,-999,-99.99,,,-99.99,,2013-05-10 09:56:00,
2013-05-10 06:02:00,46.9,-99.9,28.91,North,-999,-999.0,-999.0,-999,-99.99,,,-99.99,,2013-05-10 10:02:00,
2013-05-10 06:08:00,47.3,-99.9,28.91,North,-999,-999.0,-999.0,-999,-99.99,,,-99.99,,2013-05-10 10:08:00,
2013-05-10 06:14:00,47.4,-99.9,28.91,North,-999,-999.0,-999.0,-999,-99.99,,,-99.99,,2013-05-10 10:14:00,
2013-05-10 06:20:00,47.5,-99.9,28.91,North,-999,-999.0,-999.0,-999,-99.99,,,-99.99,,2013-05-10 10:20:00,
2013-05-10 06:26:00,47.7,-99.9,28.91,North,-999,-999.0,-999.0,-999,-99.99,,,-99.99,,2013-05-10 10:26:00,
2013-05-10 06:32:00,47.9,-99.9,28.91,North,-999,-999.0,-999.0,-999,-99.99,,,-99.99,,2013-05-10 10:32:00,
2013-05-10 06:38:00,48.0,-99.9,28.91,North,-999,-999.0,-999.0,-999,-99.99,,,-99.99,,2013-05-10 10:38:00,
2013-05-10 06:44:00,48.3,-99.9,28.91,North,-999,-999.0,-999.0,-999,-99.99,,,-99.99,,2013-05-10 10:44:00,
2013-05-10 06:50:00,48.7,-99.9,28.91,North,-999,-999.0,-999.0,-999,-99.99,,,-99.99,,2013-05-10 10:50:00,
2013-05-10 06:56:00,49.0,-99.9,28.91,North,-999,-999.0,-999.0,-999,-99.99,,,-99.99,,2013-05-10 10:56:00,
2013-05-10 07:02:00,49.7,-99.9,28.91,North,-999,-999.0,-999.0,-999,-99.99,,,-99.99,,2013-05-10 11:02:00,
2013-05-10 07:08:00,51.1,-99.9,28.91,North,-999,-999.0,-999.0,-999,-99.99,,,-99.99,,2013-05-10 11:08:00,
2013-05-10 07:14:00,52.3,-99.9,28.91,North,-999,-999.0,-999.0,-999,-99.99,,,-99.99,,2013-05-10 11:14:00,
2013-05-10 07:20:00,53.4,-99.9,28.91,North,-999,-999.0,-999.0,-999,-99.99,,,-99.99,,2013-05-10 11:20:00,
2013-05-10 07:26:00,54.2,-99.9,28.88,North,-999,-999.0,-999.0,-999,-99.99,,,-99.99,,2013-05-10 11:26:00,
2013-05-10 07:32:00,55.0,-99.9,28.91,North,-999,-999.0,-999.0,-999,-99.99,,,-99.99,,2013-05-10 11:32:00,
2013-05-10 07:38:00,55.7,-99.9,28.91,North,-999,-999.0,-999.0,-999,-99.99,,,-99.99,,2013-05-10 11:38:00,
2013-05-10 07:44:00,56.1,-99.9,28.91,North,-999,-999.0,-999.0,-999,-99.99,,,-99.99,,2013-05-10 11:44:00,
2013-05-10 07:50:00,56.7,-99.9,28.91,North,-999,-999.0,-999.0,-999,-99.99,,,-99.99,,2013-05-10 11:50:00,
2013-05-10 07:56:00,57.2,-99.9,28.91,North,-999,-999.0,-999.0,-999,-99.99,,,-99.99,,2013-05-10 11:56:00,
2013-05-10 08:02:00,57.5,-99.9,28.91,North,-999,-999.0,-999.0,-999,-99.99,,,-99.99,,2013-05-10 12:02:00,
2013-05-10 08:08:00,57.9,-99.9,28.91,North,-999,-999.0,-999.0,-999,-99.99,,,-99.99,,2013-05-10 12:08:00,
2013-05-10 08:14:00,58.5,-99.9,28.91,North,-999,-999.0,-999.0,-999,-99.99,,,-99.99,,2013-05-10 12:14:00,
2013-05-10 08:20:00,59.2,-99.9,28.91,North,-999,-999.0,-999.0,-999,-99.99,,,-99.99,,2013-05-10 12:20:00,
2013-05-10 08:26:00,59.1,-99.9,28.91,North,-999,-999.0,-999.0,-999,-99.99,,,-99.99,,2013-05-10 12:26:00,
2013-05-10 08:32:00,59.0,-99.9,28.91,North,-999,-999.0,-999.0,-999,-99.99,,,-99.99,,2013-05-10 12:32:00,
2013-05-10 08:38:00,60.2,-99.9,28.91,North,-999,-999.0,-999.0,-999,-99.99,,,-99.99,,2013-05-10 12:38:00,
2013-05-10 08:44:00,60.9,-99.9,28.91,North,-999,-999.0,-999.0,-999,-99.99,,,-99.99,,2013-05-10 12:44:00,
2013-05-10 08:50:00,61.3,-99.9,28.91,North,-999,-999.0,-999.0,-999,-99.99,,,-99.99,,2013-05-10 12:50:00,
2013-05-10 08:56:00,61.7,-99.9,28.91,North,-999,-999.0,-999.0,-999,-99.99,,,-99.99,,2013-05-10 12:56:00,
2013-05-10 09:02:00,61.6,-99.9,28.91,North,-999,-999.0,-999.0,-999,-99.99,,,-99.99,,2013-05-10 13:02:00,
2013-05-10 09:08:00,61.8,-99.9,28.91,North,-999,-999.0,-999.0,-999,-99.99,,,-99.99,,2013-05-10 13:08:00,
2013-05-10 09:14:00,62.1,-99.9,28.91,North,-999,-999.0,-999.0,-999,-99.99,,,-99.99,,2013-05-10 13:14:00,
2013-05-10 09:20:00,62.1,-99.9,28.91,North,-999,-999.0,-999.0,-999,-99.99,,,-99.99,,2013-05-10 13:20:00,
2013-05-10 09:26:00,62.3,-99.9,28.91,North,-999,-999.0,-999.0,-999,-99.99,,,-99.99,,2013-05-10 13:26:00,
2013-05-10 09:32:00,62.6,-99.9,28.91,North,-999,-999.0,-999.0,-999,-99.99,,,-99.99,,2013-05-10 13:32:00,
2013-05-10 09:38:00,62.6,-99.9,28.91,North,-999,-999.0,-999.0,-999,-99.99,,,-99.99,,2013-05-10 13:38:00,
2013-05-10 09:44:00,63.0,-99.9,28.91,North,-999,-999.0,-999.0,-999,-99.99,,,-99.99,,2013-05-10 13:44:00,
2013-05-10 09:50:00,63.8,-99.9,28.91,North,-999,-999.0,-999.0,-999,-99.99,,,-99.99,,2013-05-10 13:50:00,
2013-05-10 09:56:00,64.9,-99.9,28.91,North,-999,-999.0,-999.0,-999,-99.99,,,-99.99,,2013-05-10 13:56:00,
2013-05-10 10:02:00,66.2,-99.9,28.91,North,-999,-999.0,-999.0,-999,-99.99,,,-99.99,,2013-05-10 14:02:00,
2013-05-10 10:08:00,67.2,-99.9,28.91,North,-999,-999.0,-999.0,-999,-99.99,,,-99.99,,2013-05-10 14:08:00,
2013-05-10 10:14:00,67.9,-99.9,28.91,North,-999,-999.0,-999.0,-999,-99.99,,,-99.99,,2013-05-10 14:14:00,
2013-05-10 10:20:00,68.8,-99.9,28.94,North,-999,-999.0,-999.0,-999,-99.99,,,-99.99,,2013-05-10 14:20:00,
2013-05-10 10:26:00,70.0,-99.9,28.91,North,-999,-999.0,-999.0,-999,-99.99,,,-99.99,,2013-05-10 14:26:00,
2013-05-10 10:32:00,70.1,-99.9,28.94,North,-999,-999.0,-999.0,-999,-99.99,,,-99.99,,2013-05-10 14:32:00,
2013-05-10 10:38:00,71.4,-99.9,28.91,North,-999,-999.0,-999.0,-999,-99.99,,,-99.99,,2013-05-10 14:38:00,
2013-05-10 10:44:00,72.0,-99.9,28.94,North,-999,-999.0,-999.0,-999,-99.99,,,-99.99,,2013-05-10 14:44:00,
2013-05-10 10:50:00,72.5,-99.9,28.94,North,-999,-999.0,-999.0,-999,-99.99,,,-99.99,,2013-05-10 14:50:00,
2013-05-10 10:56:00,74.7,-99.9,28.94,North,-999,-999.0,-999.0,-999,-99.99,,,-99.99,,2013-05-10 14:56:00,
2013-05-10 11:02:00,75.4,-99.9,28.91,North,-999,-999.0,-999.0,-999,-99.99,,,-99.99,,2013-05-10 15:02:00,
2013-05-10 11:08:00,75.3,-99.9,28.91,North,-999,-999.0,-999.0,-999,-99.99,,,-99.99,,2013-05-10 15:08:00,
2013-05-10 11:14:00,75.5,-99.9,28.91,North,-999,-999.0,-999.0,-999,-99.99,,,-99.99,,2013-05-10 15:14:00,
2013-05-10 11:20:00,75.9,-99.9,28.91,North,-999,-999.0,-999.0,-999,-99.99,,,-99.99,,2013-05-10 15:20:00,
2013-05-10 11:26:00,77.7,-99.9,28.91,North,-999,-999.0,-999.0,-999,-99.99,,,-99.99,,2013-05-10 15:26:00,
2013-05-10 11:32:00,79.1,-99.9,28.91,North,-999,-999.0,-999.0,-999,-99.99,,,-99.99,,2013-05-10 15:32:00,
2013-05-10 11:38:00,79.6,-99.9,28.91,North,-999,-999.0,-999.0,-999,-99.99,,,-99.99,,2013-05-10 15:38:00,
2013-05-10 11:44:00,79.6,-99.9,28.91,North,-999,-999.0,-999.0,-999,-99.99,,,-99.99,,2013-05-10 15:44:00,
2013-05-10 11:50:00,79.3,-99.9,28.91,North,-999,-999.0,-999.0,-999,-99.99,,,-99.99,,2013-05-10 15:50:00,
2013-05-10 11:56:00,79.7,-99.9,28.91,North,-999,-999.0,-999.0,-999,-99.99,,,-99.99,,2013-05-10 15:56:00,
2013-05-10 12:02:00,80.4,-99.9,28.91,North,-999,-999.0,-999.0,-999,-99.99,,,-99.99,,2013-05-10 16:02:00,
2013-05-10 12:08:00,81.1,-99.9,28.91,North,-999,-999.0,-999.0,-999,-99.99,,,-99.99,,2013-05-10 16:08:00,
2013-05-10 12:14:00,81.2,-99.9,28.91,North,-999,-999.0,-999.0,-999,-99.99,,,-99.99,,2013-05-10 16:14:00,
2013-05-10 12:20:00,80.5,-99.9,28.88,North,-999,-999.0,-999.0,-999,-99.99,,,-99.99,,2013-05-10 16:20:00,
2013-05-10 12:26:00,81.0,-99.9,28.88,North,-999,-999.0,-999.0,-999,-99.99,,,-99.99,,2013-05-10 16:26:00,
2013-05-10 12:32:00,80.3,-99.9,28.91,North,-999,-999.0,-999.0,-999,-99.99,,,-99.99,,2013-05-10 16:32:00,
2013-05-10 12:38:00,79.7,-99.9,28.88,North,-999,-999.0,-999.0,-999,-99.99,,,-99.99,,2013-05-10 16:38:00,
2013-05-10 12:44:00,78.7,-99.9,28.88,North,-999,-999.0,-999.0,-999,-99.99,,,-99.99,,2013-05-10 16:44:00,
2013-05-10 12:50:00,78.4,-99.9,28.88,North,-999,-999.0,-999.0,-999,-99.99,,,-99.99,,2013-05-10 16:50:00,
2013-05-10 12:56:00,78.5,-99.9,28.88,North,-999,-999.0,-999.0,-999,-99.99,,,-99.99,,2013-05-10 16:56:00,
2013-05-10 13:02:00,77.8,-99.9,28.88,North,-999,-999.0,-999.0,-999,-99.99,,,-99.99,,2013-05-10 17:02:00,
2013-05-10 13:08:00,77.4,-99.9,28.88,North,-999,-999.0,-999.0,-999,-99.99,,,-99.99,,2013-05-10 17:08:00,
2013-05-10 13:14:00,76.6,-99.9,28.88,North,-999,-999.0,-999.0,-999,-99.99,,,-99.99,,2013-05-10 17:14:00,
2013-05-10 13:20:00,76.6,-99.9,28.88,North,-999,-999.0,-999.0,-999,-99.99,,,-99.99,,2013-05-10 17:20:00,
2013-05-10 13:26:00,77.5,-99.9,28.91,North,-999,-999.0,-999.0,-999,-99.99,,,-99.99,,2013-05-10 17:26:00,
2013-05-10 13:32:00,77.8,-99.9,28.88,North,-999,-999.0,-999.0,-999,-99.99,,,-99.99,,2013-05-10 17:32:00,
2013-05-10 13:38:00,78.4,-99.9,28.88,North,-999,-999.0,-999.0,-999,-99.99,,,-99.99,,2013-05-10 17:38:00,
2013-05-10 13:44:00,78.4,-99.9,28.88,North,-999,-999.0,-999.0,-999,-99.99,,,-99.99,,2013-05-10 17:44:00,
2013-05-10 13:50:00,78.7,-99.9,28.88,North,-999,-999.0,-999.0,-999,-99.99,,,-99.99,,2013-05-10 17:50:00,
2013-05-10 13:56:00,78.7,-99.9,28.88,North,-999,-999.0,-999.0,-999,-99.99,,,-99.99,,2013-05-10 17:56:00,
2013-05-10 14:02:00,79.0,-99.9,28.88,North,-999,-999.0,-999.0,-999,-99.99,,,-99.99,,2013-05-10 18:02:00,
2013-05-10 14:08:00,79.4,-99.9,28.88,North,-999,-999.0,-999.0,-999,-99.99,,,-99.99,,2013-05-10 18:08:00,
2013-05-10 14:14:00,77.9,-99.9,28.88,North,-999,-999.0,-999.0,-999,-99.99,,,-99.99,,2013-05-10 18:14:00,
2013-05-10 14:20:00,77.2,-99.9,28.88,North,-999,-999.0,-999.0,-999,-99.99,,,-99.99,,2013-05-10 18:20:00,
2013-05-10 14:26:00,78.4,-99.9,28.84,North,-999,-999.0,-999.0,-999,-99.99,,,-99.99,,2013-05-10 18:26:00,
2013-05-10 14:32:00,79.0,-99.9,28.88,North,-999,-999.0,-999.0,-999,-99.99,,,-99.99,,2013-05-10 18:32:00,
2013-05-10 14:38:00,78.9,-99.9,28.84,North,-999,-999.0,-999.0,-999,-99.99,,,-99.99,,2013-05-10 18:38:00,
2013-05-10 14:44:00,77.6,-99.9,28.88,North,-999,-999.0,-999.0,-999,-99.99,,,-99.99,,2013-05-10 18:44:00,
2013-05-10 14:50:00,76.8,-99.9,28.88,North,-999,-999.0,-999.0,-999,-99.99,,,-99.99,,2013-05-10 18:50:00,
2013-05-10 14:56:00,77.1,-99.9,28.88,North,-999,-999.0,-999.0,-999,-99.99,,,-99.99,,2013-05-10 18:56:00,
2013-05-10 15:02:00,77.4,-99.9,28.88,North,-999,-999.0,-999.0,-999,-99.99,,,-99.99,,2013-05-10 19:02:00,
2013-05-10 15:08:00,76.9,-99.9,28.88,North,-999,-999.0,-999.0,-999,-99.99,,,-99.99,,2013-05-10 19:08:00,
2013-05-10 15:14:00,76.6,-99.9,28.88,North,-999,-999.0,-999.0,-999,-99.99,,,-99.99,,2013-05-10 19:14:00,
2013-05-10 15:20:00,76.1,-99.9,28.88,North,-999,-999.0,-999.0,-999,-99.99,,,-99.99,,2013-05-10 19:20:00,
2013-05-10 15:26:00,76.1,-99.9,28.84,North,-999,-999.0,-999.0,-999,-99.99,,,-99.99,,2013-05-10 19:26:00,
2013-05-10 15:32:00,76.5,-99.9,28.84,North,-999,-999.0,-999.0,-999,-99.99,,,-99.99,,2013-05-10 19:32:00,
2013-05-10 15:38:00,76.4,-99.9,28.88,North,-999,-999.0,-999.0,-999,-99.99,,,-99.99,,2013-05-10 19:38:00,
2013-05-10 15:44:00,76.3,-99.9,28.84,North,-999,-999.0,-999.0,-999,-99.99,,,-99.99,,2013-05-10 19:44:00,
2013-05-10 15:50:00,76.1,-99.9,28.84,North,-999,-999.0,-999.0,-999,-99.99,,,-99.99,,2013-05-10 19:50:00,
2013-05-10 15:56:00,75.6,-99.9,28.84,North,-999,-999.0,-999.0,-999,-99.99,,,-99.99,,2013-05-10 19:56:00,
2013-05-10 16:02:00,75.4,-99.9,28.84,North,-999,-999.0,-999.0,-999,-99.99,,,-99.99,,2013-05-10 20:02:00,
2013-05-10 16:08:00,75.5,-99.9,28.88,North,-999,-999.0,-999.0,-999,-99.99,,,-99.99,,2013-05-10 20:08:00,
2013-05-10 16:14:00,76.1,-99.9,28.88,North,-999,-999.0,-999.0,-999,-99.99,,,-99.99,,2013-05-10 20:14:00,
2013-05-10 16:20:00,76.2,-99.9,28.84,North,-999,-999.0,-999.0,-999,-99.99,,,-99.99,,2013-05-10 20:20:00,
2013-05-10 16:26:00,76.2,-99.9,28.84,North,-999,-999.0,-999.0,-999,-99.99,,,-99.99,,2013-05-10 20:26:00,
2013-05-10 16:32:00,76.0,-99.9,28.84,North,-999,-999.0,-999.0,-999,-99.99,,,-99.99,,2013-05-10 20:32:00,
2013-05-10 16:38:00,75.9,-99.9,28.88,North,-999,-999.0,-999.0,-999,-99.99,,,-99.99,,2013-05-10 20:38:00,
2013-05-10 16:44:00,75.9,-99.9,28.84,North,-999,-999.0,-999.0,-999,-99.99,,,-99.99,,2013-05-10 20:44:00,
2013-05-10 16:50:00,75.7,-99.9,28.84,North,-999,-999.0,-999.0,-999,-99.99,,,-99.99,,2013-05-10 20:50:00,
2013-05-10 16:56:00,75.5,-99.9,28.84,North,-999,-999.0,-999.0,-999,-99.99,,,-99.99,,2013-05-10 20:56:00,
2013-05-10 17:02:00,75.5,-99.9,28.84,North,-999,-999.0,-999.0,-999,-99.99,,,-99.99,,2013-05-10 21:02:00,
2013-05-10 17:08:00,75.2,-99.9,28.84,North,-999,-999.0,-999.0,-999,-99.99,,,-99.99,,2013-05-10 21:08:00,
2013-05-10 17:14:00,75.1,-99.9,28.84,North,-999,-999.0,-999.0,-999,-99.99,,,-99.99,,2013-05-10 21:14:00,
2013-05-10 17:20:00,74.9,-99.9,28.84,North,-999,-999.0,-999.0,-999,-99.99,,,-99.99,,2013-05-10 21:20:00,
2013-05-10 17:26:00,74.3,-99.9,28.84,North,-999,-999.0,-999.0,-999,-99.99,,,-99.99,,2013-05-10 21:26:00,
2013-05-10 17:32:00,74.0,-99.9,28.84,North,-999,-999.0,-999.0,-999,-99.99,,,-99.99,,2013-05-10 21:32:00,
2013-05-10 17:38:00,73.6,-99.9,28.81,North,-999,-999.0,-999.0,-999,-99.99,,,-99.99,,2013-05-10 21:38:00,
2013-05-10 17:44:00,74.0,-99.9,28.84,North,-999,-999.0,-999.0,-999,-99.99,,,-99.99,,2013-05-10 21:44:00,
2013-05-10 17:50:00,74.2,-99.9,28.84,North,-999,-999.0,-999.0,-999,-99.99,,,-99.99,,2013-05-10 21:50:00,
2013-05-10 17:56:00,74.1,-99.9,28.84,North,-999,-999.0,-999.0,-999,-99.99,,,-99.99,,2013-05-10 21:56:00,
2013-05-10 17:58:00,74.0,-99.9,28.84,North,-999,-999.0,-999.0,-999,-99.99,,,-99.99,,2013-05-10 21:58:00,
2013-05-10 18:00:00,73.9,-99.9,28.84,North,-999,-999.0,-999.0,-999,-99.99,,,-99.99,,2013-05-10 22:00:00,
2013-05-10 18:02:00,73.8,-99.9,28.84,North,-999,-999.0,-999.0,-999,-99.99,,,-99.99,,2013-05-10 22:02:00,
2013-05-10 18:04:00,73.9,-99.9,28.84,North,-999,-999.0,-999.0,-999,-99.99,,,-99.99,,2013-05-10 22:04:00,
2013-05-10 18:06:00,73.7,-99.9,28.81,North,-999,-999.0,-999.0,-999,-99.99,,,-99.99,,2013-05-10 22:06:00,
2013-05-10 18:12:00,73.7,-99.9,28.84,North,-999,-999.0,-999.0,-999,-99.99,,,-99.99,,2013-05-10 22:12:00,
2013-05-10 18:18:00,73.4,-99.9,28.84,North,-999,-999.0,-999.0,-999,-99.99,,,-99.99,,2013-05-10 22:18:00,
2013-05-10 18:24:00,73.0,-99.9,28.84,North,-999,-999.0,-999.0,-999,-99.99,,,-99.99,,2013-05-10 22:24:00,
2013-05-10 18:30:00,73.0,-99.9,28.84,North,-999,-999.0,-999.0,-999,-99.99,,,-99.99,,2013-05-10 22:30:00,
2013-05-10 18:36:00,72.6,-99.9,28.84,North,-999,-999.0,-999.0,-999,-99.99,,,-99.99,,2013-05-10 22:36:00,
2013-05-10 18:42:00,72.2,-99.9,28.84,North,-999,-999.0,-999.0,-999,-99.99,,,-99.99,,2013-05-10 22:42:00,
2013-05-10 18:48:00,72.0,-99.9,28.81,North,-999,-999.0,-999.0,-999,-99.99,,,-99.99,,2013-05-10 22:48:00,
2013-05-10 18:54:00,71.8,-99.9,28.84,North,-999,-999.0,-999.0,-999,-99.99,,,-99.99,,2013-05-10 22:54:00,
2013-05-10 19:00:00,71.0,-99.9,28.81,North,-999,-999.0,-999.0,-999,-99.99,,,-99.99,,2013-05-10 23:00:00,
2013-05-10 19:06:00,70.2,-99.9,28.81,North,-999,-999.0,-999.0,-999,-99.99,,,-99.99,,2013-05-10 23:06:00,
2013-05-10 19:12:00,70.0,-99.9,28.84,North,-999,-999.0,-999.0,-999,-99.99,,,-99.99,,2013-05-10 23:12:00,
2013-05-10 19:18:00,70.0,-99.9,28.81,North,-999,-999.0,-999.0,-999,-99.99,,,-99.99,,2013-05-10 23:18:00,
2013-05-10 19:24:00,70.0,-99.9,28.81,North,-999,-999.0,-999.0,-999,-99.99,,,-99.99,,2013-05-10 23:24:00,
2013-05-10 19:30:00,69.7,-99.9,28.84,North,-999,-999.0,-999.0,-999,-99.99,,,-99.99,,2013-05-10 23:30:00,
2013-05-10 19:36:00,69.4,-99.9,28.84,North,-999,-999.0,-999.0,-999,-99.99,,,-99.99,,2013-05-10 23:36:00,
2013-05-10 19:42:00,69.1,-99.9,28.81,North,-999,-999.0,-999.0,-999,-99.99,,,-99.99,,2013-05-10 23:42:00,
2013-05-10 19:48:00,68.6,-99.9,28.84,North,-999,-999.0,-999.0,-999,-99.99,,,-99.99,,2013-05-10 23:48:00,
2013-05-10 19:54:00,68.2,-99.9,28.84,North,-999,-999.0,-999.0,-999,-99.99,,,-99.99,,2013-05-10 23:54:00,
2013-05-10 20:00:00,59.2,-99.9,28.65,North,-999,-999.0,-999.0,-999,-99.99,,,-99.99,,2013-05-11 00:00:00,
2013-05-10 20:01:00,59.3,-99.9,28.65,North,-999,-999.0,-999.0,-999,-99.99,,,-99.99,,2013-05-11 00:01:00,
2013-05-10 20:04:00,58.9,-99.9,28.65,North,-999,-999.0,-999.0,-999,-99.99,,,-99.99,,2013-05-11 00:04:00,
2013-05-10 20:05:00,58.8,-99.9,28.65,North,-999,-999.0,-999.0,-999,-99.99,,,-99.99,,2013-05-11 00:05:00,
2013-05-10 20:11:00,59.3,-99.9,28.68,North,-999,-999.0,-999.0,-999,-99.99,,,-99.99,,2013-05-11 00:11:00,
2013-05-10 20:13:00,59.4,-99.9,28.65,North,-999,-999.0,-999.0,-999,-99.99,,,-99.99,,2013-05-11 00:13:00,
2013-05-10 20:15:00,59.5,-99.9,28.65,North,-999,-999.0,-999.0,-999,-99.99,,,-99.99,,2013-05-11 00:15:00,
2013-05-10 20:17:00,59.4,-99.9,28.65,North,-999,-999.0,-999.0,-999,-99.99,,,-99.99,,2013-05-11 00:17:00,
2013-05-10 20:19:00,59.4,-99.9,28.65,North,-999,-999.0,-999.0,-999,-99.99,,,-99.99,,2013-05-11 00:19:00,
2013-05-10 20:21:00,59.3,-99.9,28.65,North,-999,-999.0,-999.0,-999,-99.99,,,-99.99,,2013-05-11 00:21:00,
2013-05-10 20:23:00,59.2,-99.9,28.65,North,-999,-999.0,-999.0,-999,-99.99,,,-99.99,,2013-05-11 00:23:00,
2013-05-10 20:25:00,59.2,-99.9,28.65,North,-999,-999.0,-999.0,-999,-99.99,,,-99.99,,2013-05-11 00:25:00,
2013-05-10 20:27:00,59.0,-99.9,28.65,North,-999,-999.0,-999.0,-999,-99.99,,,-99.99,,2013-05-11 00:27:00,
2013-05-10 20:28:00,58.9,-99.9,28.65,North,-999,-999.0,-999.0,-999,-99.99,,,-99.99,,2013-05-11 00:28:00,
2013-05-10 20:31:00,58.7,-99.9,28.68,North,-999,-999.0,-999.0,-999,-99.99,,,-99.99,,2013-05-11 00:31:00,
2013-05-10 20:33:00,58.7,-99.9,28.65,North,-999,-999.0,-999.0,-999,-99.99,,,-99.99,,2013-05-11 00:33:00,
2013-05-10 20:35:00,58.7,-99.9,28.65,North,-999,-999.0,-999.0,-999,-99.99,,,-99.99,,2013-05-11 00:35:00,
2013-05-10 20:37:00,58.7,-99.9,28.65,North,-999,-999.0,-999.0,-999,-99.99,,,-99.99,,2013-05-11 00:37:00,
2013-05-10 20:39:00,58.7,-99.9,28.65,North,-999,-999.0,-999.0,-999,-99.99,,,-99.99,,2013-05-11 00:39:00,
2013-05-10 20:41:00,58.8,-99.9,28.68,North,-999,-999.0,-999.0,-999,-99.99,,,-99.99,,2013-05-11 00:41:00,
2013-05-10 20:43:00,58.9,-99.9,28.65,North,-999,-999.0,-999.0,-999,-99.99,,,-99.99,,2013-05-11 00:43:00,
2013-05-10 20:45:00,58.8,-99.9,28.65,North,-999,-999.0,-999.0,-999,-99.99,,,-99.99,,2013-05-11 00:45:00,
2013-05-10 20:53:00,58.6,-99.9,28.65,North,-999,-999.0,-999.0,-999,-99.99,,,-99.99,,2013-05-11 00:53:00,
2013-05-10 20:55:00,58.5,-99.9,28.65,North,-999,-999.0,-999.0,-999,-99.99,,,-99.99,,2013-05-11 00:55:00,
2013-05-10 20:57:00,58.6,-99.9,28.65,North,-999,-999.0,-999.0,-999,-99.99,,,-99.99,,2013-05-11 00:57:00,
2013-05-10 20:59:00,59.4,-99.9,28.65,North,-999,-999.0,-999.0,-999,-99.99,,,-99.99,,2013-05-11 00:59:00,
2013-05-10 21:01:00,58.5,-99.9,28.65,North,-999,-999.0,-999.0,-999,-99.99,,,-99.99,,2013-05-11 01:01:00,
2013-05-10 21:02:00,58.3,-99.9,28.65,North,-999,-999.0,-999.0,-999,-99.99,,,-99.99,,2013-05-11 01:02:00,
2013-05-10 21:03:00,58.4,-99.9,28.65,North,-999,-999.0,-999.0,-999,-99.99,,,-99.99,,2013-05-11 01:03:00,
2013-05-10 21:05:00,58.3,-99.9,28.65,North,-999,-999.0,-999.0,-999,-99.99,,,-99.99,,2013-05-11 01:05:00,
2013-05-10 21:07:00,58.2,-99.9,28.65,North,-999,-999.0,-999.0,-999,-99.99,,,-99.99,,2013-05-11 01:07:00,
2013-05-10 21:09:00,58.2,-99.9,28.65,North,-999,-999.0,-999.0,-999,-99.99,,,-99.99,,2013-05-11 01:09:00,
2013-05-10 21:11:00,58.2,-99.9,28.65,North,-999,-999.0,-999.0,-999,-99.99,,,-99.99,,2013-05-11 01:11:00,
2013-05-10 21:13:00,58.3,-99.9,28.65,North,-999,-999.0,-999.0,-999,-99.99,,,-99.99,,2013-05-11 01:13:00,
2013-05-10 21:15:00,58.4,-99.9,28.65,North,-999,-999.0,-999.0,-999,-99.99,,,-99.99,,2013-05-11 01:15:00,
2013-05-10 21:17:00,58.4,-99.9,28.65,North,-999,-999.0,-999.0,-999,-99.99,,,-99.99,,2013-05-11 01:17:00,
2013-05-10 21:19:00,58.4,-99.9,28.65,North,-999,-999.0,-999.0,-999,-99.99,,,-99.99,,2013-05-11 01:19:00,
2013-05-10 21:21:00,58.5,-99.9,28.65,North,-999,-999.0,-999.0,-999,-99.99,,,-99.99,,2013-05-11 01:21:00,
2013-05-10 21:23:00,58.4,-99.9,28.65,North,-999,-999.0,-999.0,-999,-99.99,,,-99.99,,2013-05-11 01:23:00,
2013-05-10 21:25:00,58.3,-99.9,28.68,North,-999,-999.0,-999.0,-999,-99.99,,,-99.99,,2013-05-11 01:25:00,
2013-05-10 21:35:00,57.9,-99.9,28.65,North,-999,-999.0,-999.0,-999,-99.99,,,-99.99,,2013-05-11 01:35:00,
2013-05-10 21:37:00,57.8,-99.9,28.65,North,-999,-999.0,-999.0,-999,-99.99,,,-99.99,,2013-05-11 01:37:00,
2013-05-10 21:39:00,57.8,-99.9,28.65,North,-999,-999.0,-999.0,-999,-99.99,,,-99.99,,2013-05-11 01:39:00,
2013-05-10 21:41:00,57.8,-99.9,28.65,North,-999,-999.0,-999.0,-999,-99.99,,,-99.99,,2013-05-11 01:41:00,
2013-05-10 21:43:00,57.9,-99.9,28.65,North,-999,-999.0,-999.0,-999,-99.99,,,-99.99,,2013-05-11 01:43:00,
2013-05-10 21:45:00,57.9,-99.9,28.65,North,-999,-999.0,-999.0,-999,-99.99,,,-99.99,,2013-05-11 01:45:00,
2013-05-10 21:47:00,57.8,-99.9,28.68,North,-999,-999.0,-999.0,-999,-99.99,,,-99.99,,2013-05-11 01:47:00,
2013-05-10 21:49:00,57.8,-99.9,28.65,North,-999,-999.0,-999.0,-999,-99.99,,,-99.99,,2013-05-11 01:49:00,
2013-05-10 21:51:00,57.6,-99.9,28.65,North,-999,-999.0,-999.0,-999,-99.99,,,-99.99,,2013-05-11 01:51:00,
2013-05-10 21:53:00,57.5,-99.9,28.65,North,-999,-999.0,-999.0,-999,-99.99,,,-99.99,,2013-05-11 01:53:00,
2013-05-10 21:55:00,57.5,-99.9,28.65,North,-999,-999.0,-999.0,-999,-99.99,,,-99.99,,2013-05-11 01:55:00,
2013-05-10 21:57:00,57.4,-99.9,28.65,North,-999,-999.0,-999.0,-999,-99.99,,,-99.99,,2013-05-11 01:57:00,
2013-05-10 21:59:00,58.5,-99.9,28.65,North,-999,-999.0,-999.0,-999,-99.99,,,-99.99,,2013-05-11 01:59:00,
2013-05-10 22:00:00,57.0,-99.9,28.65,North,-999,-999.0,-999.0,-999,-99.99,,,-99.99,,2013-05-11 02:00:00,
2013-05-10 22:01:00,57.2,-99.9,28.65,North,-999,-999.0,-999.0,-999,-99.99,,,-99.99,,2013-05-11 02:01:00,
2013-05-10 22:03:00,57.1,-99.9,28.65,North,-999,-999.0,-999.0,-999,-99.99,,,-99.99,,2013-05-11 02:03:00,
2013-05-10 22:05:00,56.9,-99.9,28.65,North,-999,-999.0,-999.0,-999,-99.99,,,-99.99,,2013-05-11 02:05:00,
2013-05-10 22:15:00,57.0,-99.9,28.65,North,-999,-999.0,-999.0,-999,-99.99,,,-99.99,,2013-05-11 02:15:00,
2013-05-10 22:17:00,56.9,-99.9,28.65,North,-999,-999.0,-999.0,-999,-99.99,,,-99.99,,2013-05-11 02:17:00,
2013-05-10 22:19:00,56.9,-99.9,28.68,North,-999,-999.0,-999.0,-999,-99.99,,,-99.99,,2013-05-11 02:19:00,
2013-05-10 22:21:00,56.8,-99.9,28.65,North,-999,-999.0,-999.0,-999,-99.99,,,-99.99,,2013-05-11 02:21:00,
2013-05-10 22:23:00,56.8,-99.9,28.65,North,-999,-999.0,-999.0,-999,-99.99,,,-99.99,,2013-05-11 02:23:00,
2013-05-10 22:25:00,56.8,-99.9,28.65,North,-999,-999.0,-999.0,-999,-99.99,,,-99.99,,2013-05-11 02:25:00,
2013-05-10 22:27:00,56.8,-99.9,28.68,North,-999,-999.0,-999.0,-999,-99.99,,,-99.99,,2013-05-11 02:27:00,
2013-05-10 22:29:00,56.7,-99.9,28.65,North,-999,-999.0,-999.0,-999,-99.99,,,-99.99,,2013-05-11 02:29:00,
2013-05-10 22:31:00,56.7,-99.9,28.68,North,-999,-999.0,-999.0,-999,-99.99,,,-99.99,,2013-05-11 02:31:00,
2013-05-10 22:33:00,56.6,-99.9,28.65,North,-999,-999.0,-999.0,-999,-99.99,,,-99.99,,2013-05-11 02:33:00,
2013-05-10 22:35:00,56.6,-99.9,28.65,North,-999,-999.0,-999.0,-999,-99.99,,,-99.99,,2013-05-11 02:35:00,
2013-05-10 22:37:00,56.6,-99.9,28.65,North,-999,-999.0,-999.0,-999,-99.99,,,-99.99,,2013-05-11 02:37:00,
2013-05-10 22:39:00,56.5,-99.9,28.68,North,-999,-999.0,-999.0,-999,-99.99,,,-99.99,,2013-05-11 02:39:00,
2013-05-10 22:41:00,56.5,-99.9,28.65,North,-999,-999.0,-999.0,-999,-99.99,,,-99.99,,2013-05-11 02:41:00,
2013-05-10 22:43:00,56.5,-99.9,28.65,North,-999,-999.0,-999.0,-999,-99.99,,,-99.99,,2013-05-11 02:43:00,
2013-05-10 22:45:00,56.4,-99.9,28.65,North,-999,-999.0,-999.0,-999,-99.99,,,-99.99,,2013-05-11 02:45:00,
2013-05-10 22:47:00,56.4,-99.9,28.68,North,-999,-999.0,-999.0,-999,-99.99,,,-99.99,,2013-05-11 02:47:00,
2013-05-10 22:55:00,56.1,-99.9,28.65,North,-999,-999.0,-999.0,-999,-99.99,,,-99.99,,2013-05-11 02:55:00,
2013-05-10 22:57:00,56.0,-99.9,28.68,North,-999,-999.0,-999.0,-999,-99.99,,,-99.99,,2013-05-11 02:57:00,
2013-05-10 22:59:00,57.3,-99.9,28.65,North,-999,-999.0,-999.0,-999,-99.99,,,-99.99,,2013-05-11 02:59:00,
2013-05-10 23:01:00,56.1,-99.9,28.65,North,-999,-999.0,-999.0,-999,-99.99,,,-99.99,,2013-05-11 03:01:00,
2013-05-10 23:03:00,55.6,-99.9,28.65,North,-999,-999.0,-999.0,-999,-99.99,,,-99.99,,2013-05-11 03:03:00,
2013-05-10 23:13:00,55.9,-99.9,28.65,North,-999,-999.0,-999.0,-999,-99.99,,,-99.99,,2013-05-11 03:13:00,
2013-05-10 23:15:00,55.8,-99.9,28.65,North,-999,-999.0,-999.0,-999,-99.99,,,-99.99,,2013-05-11 03:15:00,
2013-05-10 23:17:00,55.8,-99.9,28.65,North,-999,-999.0,-999.0,-999,-99.99,,,-99.99,,2013-05-11 03:17:00,
2013-05-10 23:19:00,55.7,-99.9,28.65,North,-999,-999.0,-999.0,-999,-99.99,,,-99.99,,2013-05-11 03:19:00,
2013-05-10 23:21:00,55.6,-99.9,28.65,North,-999,-999.0,-999.0,-999,-99.99,,,-99.99,,2013-05-11 03:21:00,
2013-05-10 23:23:00,55.5,-99.9,28.65,North,-999,-999.0,-999.0,-999,-99.99,,,-99.99,,2013-05-11 03:23:00,
2013-05-10 23:25:00,55.6,-99.9,28.65,North,-999,-999.0,-999.0,-999,-99.99,,,-99.99,,2013-05-11 03:25:00,
2013-05-10 23:27:00,55.6,-99.9,28.65,North,-999,-999.0,-999.0,-999,-99.99,,,-99.99,,2013-05-11 03:27:00,
2013-05-10 23:37:00,55.5,-99.9,28.65,North,-999,-999.0,-999.0,-999,-99.99,,,-99.99,,2013-05-11 03:37:00,
2013-05-10 23:39:00,55.4,-99.9,28.65,North,-999,-999.0,-999.0,-999,-99.99,,,-99.99,,2013-05-11 03:39:00,
2013-05-10 23:41:00,55.5,-99.9,28.68,North,-999,-999.0,-999.0,-999,-99.99,,,-99.99,,2013-05-11 03:41:00,
2013-05-10 23:43:00,55.5,-99.9,28.65,North,-999,-999.0,-999.0,-999,-99.99,,,-99.99,,2013-05-11 03:43:00,
2013-05-10 23:45:00,55.3,-99.9,28.65,North,-999,-999.0,-999.0,-999,-99.99,,,-99.99,,2013-05-11 03:45:00,
2013-05-10 23:47:00,55.3,-99.9,28.65,North,-999,-999.0,-999.0,-999,-99.99,,,-99.99,,2013-05-11 03:47:00,
2013-05-10 23:49:00,55.4,-99.9,28.65,North,-999,-999.0,-999.0,-999,-99.99,,,-99.99,,2013-05-11 03:49:00,
2013-05-10 23:51:00,55.3,-99.9,28.65,North,-999,-999.0,-999.0,-999,-99.99,,,-99.99,,2013-05-11 03:51:00,
2013-05-10 23:53:00,55.3,-99.9,28.65,North,-999,-999.0,-999.0,-999,-99.99,,,-99.99,,2013-05-11 03:53:00,
2013-05-10 23:55:00,55.4,-99.9,28.65,North,-999,-999.0,-999.0,-999,-99.99,,,-99.99,,2013-05-11 03:55:00,
2013-05-10 23:57:00,55.4,-99.9,28.65,North,-999,-999.0,-999.0,-999,-99.99,,,-99.99,,2013-05-11 03:57:00,
2013-05-10 23:59:00,56.1,-99.9,28.65,North,-999,-999.0,-999.0,-999,-99.99,,,-99.99,,2013-05-11 03:59:00,